Location: Balmoral
(33.0667°S, 151.5833°E)
Time: 00:14:13
(UTC+00:00)

Geosat - Pass Details

Date: 18 September 2020
Orbit: 763 x 765 km, 108.0° (Epoch: 21 October)

Event Time Altitude Azimuth Distance (km) Brightness Sun altitude
Rises 17:44:58 0° 159° (SSE) 3,259 7.8 -26.2°
Reaches altitude 10° 17:47:16 10° 161° (SSE) 2,326 6.9 -25.7°
Maximum altitude 17:52:19 71° 244° (WSW) 815 3.9 -24.7°
Enters shadow 17:52:33 70° 266° (W) 820 3.8 -24.7°
